Temperature
7 7 7 7 8 6 6 6 7 7 6 8 5 2 2 1 1 -0 -1 -1 -2 -2 -3 -3 -4 -4 -5 -5 -5 -6 -6 -7 -8 -9 -10 -11 -11 -12 -12 -12 -12 -12 -11 -11
7 8 7 6 6 6 6 6 5 6 7 6 4 3 1 0 0 -0 -0 -1 -2 -2 -3 -3 -4 -4 -5 -5 -5 -6 -7 -7 -8 -9 -10 -10 -11 -12 -12 -12 -12 -12 -12 -11
8 7 8 10 9 6 6 5 6 7 8 4 1 0 0 1 1 1 0 -1 -2 -2 -3 -3 -4 -4 -4 -5 -5 -6 -7 -7 -8 -9 -10 -10 -11 -12 -12 -12 -12 -13 -12 -12
6 8 13 13 9 7 8 7 5 5 6 3 4 3 3 3 3 1 0 -1 -2 -2 -3 -3 -4 -4 -5 -5 -5 -6 -7 -7 -8 -9 -9 -10 -11 -12 -12 -12 -13 -13 -13 -12
6 8 9 10 8 7 8 8 7 5 6 3 1 1 1 3 2 1 0 -1 -2 -2 -3 -3 -4 -4 -5 -5 -5 -6 -7 -7 -8 -9 -9 -10 -10 -11 -12 -12 -13 -13 -13 -13
5 10 11 12 8 8 8 8 9 8 5 0 -1 0 2 4 2 0 -0 -1 -2 -2 -3 -3 -4 -4 -5 -5 -5 -6 -7 -7 -8 -9 -9 -10 -10 -11 -11 -12 -12 -13 -13 -13
4 6 8 9 7 7 10 11 12 11 9 4 1 4 6 5 3 1 -0 -1 -2 -2 -2 -3 -4 -4 -4 -5 -5 -6 -6 -7 -8 -8 -9 -9 -10 -10 -11 -11 -12 -12 -12 -12
3 5 8 8 5 7 11 13 13 12 11 9 8 6 5 5 3 1 -0 -1 -1 -2 -2 -3 -3 -4 -4 -5 -5 -6 -6 -7 -8 -8 -9 -9 -10 -10 -10 -11 -11 -11 -12 -12
7 10 12 11 13 15 14 13 13 12 11 10 8 6 5 4 2 1 0 -0 -1 -2 -2 -3 -3 -4 -4 -5 -5 -6 -6 -7 -7 -8 -8 -9 -9 -10 -10 -10 -11 -11 -12 -12
4 7 10 11 13 14 14 13 13 12 10 9 9 7 5 4 2 1 0 -0 -1 -2 -2 -2 -3 -4 -4 -5 -5 -5 -6 -6 -7 -7 -7 -8 -9 -9 -10 -10 -11 -11 -11 -11
5 7 10 15 17 18 16 15 13 12 10 9 8 7 6 4 3 2 1 -0 -1 -2 -2 -2 -3 -4 -4 -4 -5 -5 -6 -6 -6 -7 -7 -7 -8 -9 -9 -10 -11 -11 -11 -11
12 13 12 17 18 17 16 15 14 12 10 8 7 7 6 4 3 2 1 -0 -1 -1 -2 -2 -3 -3 -4 -4 -5 -5 -5 -6 -6 -6 -6 -7 -7 -7 -8 -9 -10 -10 -11 -11
17 18 17 17 17 16 16 15 13 12 11 9 7 6 5 4 3 2 1 -0 -1 -1 -2 -2 -3 -3 -4 -4 -5 -5 -5 -5 -6 -6 -6 -6 -7 -7 -7 -7 -8 -9 -10 -10
17 16 15 17 17 16 14 13 12 11 9 8 7 6 5 4 3 2 1 1 -0 -2 -2 -2 -3 -3 -4 -4 -4 -5 -5 -5 -5 -5 -6 -6 -6 -7 -7 -7 -7 -8 -9 -10
15 16 16 16 16 15 13 12 11 10 9 7 6 5 5 4 3 2 1 0 -1 -2 -2 -2 -3 -3 -4 -4 -4 -5 -5 -5 -5 -5 -5 -5 -6 -6 -6 -7 -7 -8 -8 -9
16 15 15 15 15 14 12 11 11 11 9 8 6 5 5 4 3 2 1 -0 -1 -1 -1 -2 -2 -3 -3 -4 -4 -4 -5 -5 -5 -5 -5 -5 -5 -6 -6 -6 -7 -8 -8 -9
14 15 15 15 16 15 14 14 13 12 10 9 7 5 4 3 2 1 0 -0 -0 -1 -2 -2 -2 -3 -3 -4 -4 -4 -5 -5 -5 -5 -5 -5 -5 -6 -6 -6 -7 -7 -8 -9
16 16 17 16 16 15 15 13 12 11 10 9 7 5 4 3 3 2 1 -0 -1 -1 -2 -2 -2 -3 -3 -3 -4 -4 -4 -5 -5 -5 -5 -5 -5 -6 -6 -6 -7 -7 -7 -8
17 17 18 18 17 15 14 13 12 11 10 8 7 5 5 4 3 2 1 -0 -1 -1 -1 -2 -2 -2 -3 -3 -4 -4 -4 -5 -5 -5 -5 -5 -6 -6 -6 -6 -7 -7 -7 -8
17 18 18 18 18 17 15 14 12 11 10 9 7 5 4 4 3 2 1 0 0 1 -0 -2 -2 -2 -3 -3 -4 -4 -4 -4 -5 -5 -5 -5 -6 -6 -6 -7 -7 -7 -8 -8
18 19 19 19 19 18 16 14 12 11 10 9 7 6 5 4 3 2 1 1 1 -0 -1 -2 -2 -2 -3 -3 -3 -4 -4 -4 -5 -5 -5 -5 -6 -6 -6 -7 -7 -7 -8 -8
18 19 19 20 19 19 17 14 12 11 10 9 8 6 5 4 3 3 2 2 1 0 -1 -2 -2 -2 -3 -3 -3 -4 -4 -4 -5 -5 -5 -6 -6 -6 -7 -7 -7 -8 -8 -8
17 17 18 19 19 18 16 14 12 11 10 9 8 7 5 4 4 3 2 2 1 -0 -1 -1 -2 -2 -3 -3 -3 -4 -4 -4 -5 -5 -5 -6 -6 -6 -7 -7 -7 -8 -8 -8
15 15 16 16 14 14 14 14 12 11 10 9 8 7 6 4 4 3 3 3 1 0 -1 -1 -2 -2 -3 -3 -3 -4 -4 -4 -5 -5 -5 -6 -6 -7 -7 -7 -8 -8 -8 -9
13 13 14 13 13 13 13 12 11 10 9 8 7 6 5 5 5 4 3 2 1 0 -0 -1 -2 -2 -3 -3 -3 -3 -4 -4 -5 -5 -5 -6 -6 -7 -7 -7 -8 -8 -9 -9
11 11 11 11 11 10 11 11 10 10 9 8 7 6 5 4 4 3 3 2 1 0 -0 -1 -2 -2 -3 -3 -3 -3 -4 -4 -5 -5 -5 -6 -6 -7 -7 -8 -8 -8 -9 -9
10 10 10 10 9 9 8 9 9 10 10 9 8 7 6 4 4 3 2 2 1 0 -0 -1 -2 -2 -2 -3 -3 -3 -4 -4 -5 -5 -5 -6 -6 -7 -7 -8 -8 -9 -9 -9
Wind_Speed
8 6 5 7 9 9 10 9 10 11 11 16 8 12 12 11 10 10 8 8 7 5 4 4 5 6 6 7 7 7 7 8 9 10 10 10 11 11 11 12 13 14 15 17
6 3 4 8 11 10 10 8 10 12 18 10 3 5 9 12 13 12 10 9 8 6 5 5 5 5 6 6 6 6 7 8 9 10 10 10 11 11 11 12 12 13 14 15
5 6 7 9 9 10 8 10 11 11 11 3 4 9 13 16 15 13 10 9 9 8 6 6 5 5 5 6 6 6 7 7 8 9 10 10 12 12 12 11 11 12 13 14
3 8 6 7 1 8 8 10 12 11 10 8 8 5 6 10 14 12 11 10 9 8 7 5 4 4 4 5 5 6 7 7 8 8 9 10 10 10 10 9 10 9 10 12
2 4 10 10 4 6 6 10 10 13 13 4 5 3 3 8 11 11 11 9 8 7 6 5 4 4 4 5 5 6 7 7 8 8 8 9 9 10 8 8 8 8 10 11
4 2 7 8 3 5 3 8 8 10 9 9 10 4 7 12 12 10 9 8 8 7 6 5 4 3 3 4 5 6 7 7 8 7 8 8 8 8 7 8 8 10 11 10
6 7 11 8 6 7 3 8 5 9 10 14 14 8 3 14 12 11 10 9 8 8 7 6 4 3 4 5 6 6 7 7 7 7 8 8 7 7 8 9 10 10 10 11
6 6 10 8 10 11 12 3 6 8 10 14 11 5 8 13 14 14 11 9 9 8 7 6 5 4 5 6 6 6 6 7 7 8 7 8 8 8 8 8 9 9 8 9
12 11 6 12 13 11 5 7 8 8 10 12 10 9 11 11 13 13 13 11 9 8 7 6 5 5 6 5 5 6 6 7 7 8 7 7 7 8 8 7 8 9 7 8
8 15 12 13 13 12 10 10 9 9 10 15 12 14 14 14 13 13 12 11 10 9 8 7 7 6 7 6 5 6 7 7 7 7 8 8 7 6 7 8 8 8 7 9
9 12 11 11 15 18 13 11 9 9 11 16 15 14 15 15 15 14 13 11 10 10 9 8 7 7 6 5 4 5 7 6 7 7 7 7 8 6 8 7 10 11 8 8
13 12 10 10 7 8 11 14 14 12 10 11 14 17 17 15 14 14 13 12 11 11 10 8 7 7 6 5 5 5 5 6 5 6 6 7 8 9 12 13 16 16 16 16
15 9 10 11 5 7 10 12 13 16 15 13 13 15 17 13 14 14 13 14 14 12 10 8 8 7 7 6 5 5 5 6 5 6 6 7 7 8 10 12 15 16 18 20
15 7 9 10 10 10 9 8 10 11 11 12 13 14 15 12 13 15 15 15 12 10 9 8 8 8 7 6 5 6 5 6 6 5 5 5 6 7 8 9 11 10 14 19
17 16 15 9 4 6 7 8 9 11 11 11 11 14 17 16 17 17 13 12 11 10 9 9 9 9 7 6 6 6 5 4 5 4 4 4 5 6 6 8 8 9 9 12
11 13 14 13 13 10 10 11 14 16 16 16 15 16 16 16 14 13 13 14 13 14 13 11 11 8 7 7 6 4 4 6 6 3 3 4 4 5 6 7 8 8 9 10
11 13 12 13 17 16 17 17 18 17 18 19 19 16 14 13 12 13 14 14 12 11 11 12 10 8 7 7 6 4 4 4 6 4 3 4 4 4 5 6 6 7 8 11
19 22 18 15 14 16 18 18 17 17 17 17 16 16 18 19 19 17 15 13 10 8 10 10 9 8 8 7 6 4 4 3 3 3 3 4 4 4 4 5 6 8 7 9
22 24 22 19 16 14 16 18 19 18 16 17 19 20 20 19 16 15 14 14 15 15 13 11 15 11 9 10 9 5 5 4 3 3 3 4 4 4 4 5 6 7 7 8
22 22 21 18 15 14 16 14 15 16 17 19 19 18 17 16 15 16 16 16 15 10 9 12 13 11 10 10 10 5 5 5 4 3 3 3 3 4 4 5 5 6 6 6
21 21 19 19 17 15 15 16 17 18 19 20 21 21 19 17 16 16 16 15 13 10 10 15 12 10 10 10 11 6 6 5 5 4 3 3 3 4 4 4 5 6 6 7
21 20 21 19 16 15 14 15 16 18 19 19 19 17 17 17 18 16 15 11 11 18 13 10 10 13 14 14 7 7 7 6 5 4 4 4 3 3 4 4 5 5 6 7
16 15 15 15 15 12 11 14 17 18 21 22 22 22 21 18 17 16 15 12 9 19 15 11 15 20 20 12 8 8 8 7 6 5 5 4 4 4 4 4 4 5 6 6
11 10 8 6 9 12 16 16 16 15 16 16 17 18 18 15 14 13 6 17 22 20 14 16 23 23 21 9 9 8 8 7 6 6 5 5 4 4 4 4 4 5 5 7
5 5 7 10 13 13 12 12 13 13 14 12 13 15 15 13 12 14 11 15 23 22 13 17 24 24 15 9 10 9 8 8 7 7 6 5 5 4 4 4 4 4 5 6
4 6 7 10 9 7 9 12 13 13 14 14 13 14 13 10 9 11 12 13 17 21 15 12 13 17 11 11 10 10 9 8 8 7 7 6 6 5 4 4 5 4 5 6
3 4 5 6 7 8 10 12 13 14 15 15 15 14 15 14 13 13 14 14 14 14 13 12 12 12 11 11 10 9 8 8 7 7 6 6 6 5 5 5 5 6 7 8
Wind_Direction
258 259 240 242 228 195 198 206 217 247 254 274 252 217 199 178 169 172 184 190 193 204 236 265 286 298 302 308 318 330 332 332 329 326 326 328 331 331 333 338 342 339 341 343
292 224 257 263 241 215 220 222 237 265 275 273 286 155 164 174 178 187 194 195 194 204 223 246 269 287 302 310 318 327 329 327 326 329 331 332 332 335 337 338 338 339 342 342
285 303 318 280 240 188 206 210 200 231 253 189 206 197 190 187 188 193 193 190 192 202 215 231 250 271 288 302 314 326 325 323 325 327 331 332 335 337 336 332 334 337 337 341
303 352 283 251 132 177 214 242 216 240 256 213 221 200 193 184 186 189 186 185 188 193 204 218 236 262 283 304 319 322 322 321 321 324 326 326 331 332 329 324 329 329 329 335
101 309 283 294 227 180 207 278 224 229 250 166 110 68 261 204 188 186 181 177 180 186 193 202 228 257 287 308 318 320 319 317 315 316 320 324 328 326 320 320 321 324 327 331
141 217 259 258 165 164 109 285 242 204 203 158 144 194 246 185 175 168 165 163 170 177 183 200 221 239 272 298 309 310 307 306 307 310 317 316 317 317 315 319 322 328 327 327
178 225 262 250 152 143 178 254 220 188 182 171 191 208 180 155 159 161 161 164 167 174 187 201 208 219 257 282 287 292 299 302 306 311 312 307 315 313 316 324 325 320 317 317
163 200 255 193 148 186 219 212 183 192 186 190 196 144 145 157 160 162 164 167 171 178 194 199 200 210 250 269 277 293 300 304 307 309 311 322 317 312 313 315 316 312 308 315
193 217 241 178 202 220 200 204 207 200 196 179 171 173 166 167 166 168 172 176 176 181 191 201 204 209 241 260 287 301 307 307 307 310 308 310 309 307 311 310 312 313 314 321
239 261 249 226 239 245 219 219 215 196 179 174 178 176 171 170 173 175 178 181 178 180 192 207 210 218 232 261 284 295 302 305 307 309 311 315 316 315 315 314 314 316 327 326
246 269 290 263 233 237 229 219 209 191 183 184 175 174 175 176 180 181 183 182 182 189 198 205 204 221 236 249 269 287 298 302 308 314 310 315 321 315 319 315 326 340 334 326
236 228 213 252 236 205 204 210 201 186 185 185 182 179 176 180 180 180 181 180 186 194 201 200 199 219 232 240 250 273 297 307 310 310 317 322 320 324 331 339 341 346 346 345
234 238 223 252 252 195 207 210 193 190 186 185 184 178 176 175 179 179 181 184 191 195 197 192 198 217 226 228 242 257 275 294 301 312 319 324 328 332 332 336 342 348 350 349
238 244 269 250 237 214 206 195 181 187 188 181 175 174 175 168 171 181 188 190 188 187 189 191 201 218 218 216 236 255 269 289 301 297 306 312 318 325 330 333 335 337 343 347
229 220 232 247 228 189 173 157 171 189 184 177 172 173 174 176 182 188 185 176 175 184 193 195 208 220 205 206 229 248 266 275 282 292 306 310 313 321 329 331 332 333 335 341
221 223 234 241 237 206 182 187 196 200 192 185 182 184 185 183 180 175 172 173 178 195 200 201 212 211 192 201 222 240 256 286 304 313 318 318 315 323 332 332 333 335 338 334
215 233 225 233 233 216 207 205 206 201 192 191 190 182 172 167 168 176 182 186 190 195 196 201 208 197 190 196 206 223 240 274 301 315 306 303 304 318 324 324 326 329 330 335
225 237 232 226 229 217 213 209 207 199 195 192 176 170 174 180 186 188 184 178 182 197 208 205 196 187 191 194 201 211 220 236 256 272 284 293 304 317 317 317 320 324 327 336
232 239 243 235 225 209 206 205 205 199 186 175 175 182 186 189 186 177 170 174 188 207 214 201 203 196 197 205 204 199 206 223 244 259 274 300 324 315 311 313 316 319 323 337
239 240 242 238 222 208 206 194 188 188 183 177 178 181 185 186 177 171 175 189 201 200 176 183 195 194 194 203 203 185 196 211 226 243 259 274 292 302 307 312 315 317 323 333
236 237 235 233 225 210 198 185 182 185 181 179 183 187 186 181 176 173 181 200 205 179 174 188 187 190 189 196 201 185 192 203 213 223 238 258 279 294 304 311 317 323 330 334
231 231 230 225 215 207 192 182 182 179 177 183 186 181 176 177 179 185 197 201 181 184 183 187 184 191 191 194 185 184 192 200 206 211 222 235 253 275 293 305 311 318 323 322
242 237 231 218 206 189 169 179 182 180 182 184 185 185 184 182 182 186 200 199 172 184 183 188 192 194 195 191 182 187 194 199 204 207 213 222 234 250 269 289 298 307 309 312
247 238 225 188 159 167 185 190 184 184 183 184 187 185 181 179 189 199 184 178 183 186 186 192 194 195 194 183 182 188 194 199 201 202 206 215 225 236 250 268 283 292 299 308
248 211 174 172 188 203 198 175 171 172 174 183 186 186 187 185 183 187 176 174 182 184 185 193 194 195 190 179 185 190 193 199 199 199 205 211 218 226 238 251 267 285 295 300
210 204 203 205 206 193 177 177 183 183 182 185 189 189 189 183 166 167 172 175 179 184 181 184 188 194 186 184 188 190 192 203 215 207 199 204 213 219 229 240 258 267 282 292
213 202 200 208 206 192 183 187 190 189 188 187 185 184 183 181 175 171 172 176 180 184 181 182 184 185 184 185 187 188 189 192 196 198 198 203 208 214 221 231 245 263 279 289
Height
1595 1592 1592 1590 1588 1591 1593 1590 1590 1577 1570 1553 1553 1554 1554 1558 1562 1565 1566 1568 1568 1568 1567 1565 1563 1560 1557 1553 1548 1544 1538 1533 1527 1521 1515 1509 1503 1497 1491 1486 1480 1474 1468 1461
1593 1588 1590 1588 1582 1584 1585 1583 1581 1574 1562 1547 1548 1548 1550 1554 1557 1559 1562 1563 1564 1564 1564 1562 1561 1558 1555 1551 1547 1542 1537 1532 1526 1520 1514 1508 1503 1497 1492 1486 1480 1474 1469 1463
1594 1589 1584 1576 1564 1572 1572 1569 1568 1564 1551 1546 1546 1546 1545 1548 1551 1554 1557 1559 1560 1561 1561 1560 1558 1556 1553 1549 1546 1542 1537 1531 1526 1520 1514 1508 1503 1497 1491 1486 1481 1475 1469 1464
1600 1590 1577 1558 1557 1558 1560 1556 1555 1550 1543 1543 1542 1542 1542 1544 1547 1550 1553 1555 1556 1557 1557 1557 1555 1554 1551 1548 1545 1541 1536 1531 1525 1520 1514 1508 1503 1497 1491 1486 1481 1475 1470 1465
1601 1595 1581 1559 1555 1557 1557 1551 1541 1541 1537 1539 1539 1541 1540 1540 1543 1547 1549 1551 1553 1554 1554 1554 1553 1551 1549 1547 1543 1539 1535 1530 1524 1519 1514 1508 1502 1497 1491 1486 1481 1476 1471 1466
1602 1589 1580 1553 1552 1552 1555 1551 1533 1533 1532 1535 1539 1543 1534 1533 1537 1542 1545 1547 1549 1550 1551 1551 1550 1549 1547 1545 1542 1538 1533 1528 1524 1519 1514 1509 1503 1497 1492 1486 1481 1476 1471 1466
1600 1593 1571 1549 1549 1553 1556 1541 1528 1526 1526 1528 1529 1528 1528 1529 1532 1537 1541 1543 1545 1546 1547 1548 1548 1547 1545 1543 1540 1536 1532 1528 1523 1519 1514 1509 1504 1498 1492 1487 1482 1476 1471 1466
1594 1593 1567 1542 1545 1545 1533 1522 1522 1521 1521 1521 1521 1522 1524 1526 1529 1533 1536 1539 1541 1542 1544 1544 1544 1544 1543 1541 1538 1535 1531 1527 1523 1518 1514 1508 1503 1498 1493 1487 1481 1475 1470 1465
1561 1547 1530 1527 1524 1521 1520 1518 1517 1516 1516 1516 1516 1517 1520 1523 1526 1529 1532 1535 1537 1539 1540 1541 1541 1541 1540 1539 1537 1534 1530 1526 1522 1518 1514 1508 1503 1497 1492 1486 1480 1475 1470 1465
1549 1530 1521 1520 1517 1515 1514 1512 1511 1511 1511 1511 1511 1513 1516 1519 1522 1525 1528 1531 1533 1535 1536 1537 1538 1538 1538 1537 1534 1532 1529 1525 1521 1517 1513 1508 1502 1497 1491 1485 1480 1476 1471 1465
1537 1521 1515 1509 1507 1507 1506 1505 1505 1504 1504 1505 1506 1508 1511 1513 1516 1520 1523 1527 1529 1531 1532 1534 1534 1535 1535 1534 1532 1530 1527 1524 1520 1516 1511 1507 1502 1497 1491 1486 1482 1478 1472 1467
1517 1507 1508 1503 1501 1501 1500 1498 1498 1497 1497 1498 1500 1503 1506 1508 1512 1515 1519 1522 1524 1527 1528 1530 1531 1531 1532 1531 1530 1528 1525 1522 1519 1515 1510 1506 1501 1497 1493 1487 1482 1477 1473 1469
1499 1499 1499 1495 1494 1493 1492 1492 1491 1491 1491 1492 1494 1497 1500 1503 1507 1510 1514 1517 1520 1522 1524 1525 1526 1527 1528 1528 1527 1525 1523 1520 1517 1513 1509 1505 1500 1494 1489 1486 1482 1477 1472 1467
1492 1494 1491 1487 1487 1486 1485 1485 1485 1484 1485 1487 1489 1492 1494 1498 1501 1504 1508 1512 1516 1518 1520 1521 1522 1523 1524 1524 1524 1523 1521 1519 1516 1513 1509 1505 1500 1495 1490 1484 1479 1475 1471 1466
1483 1485 1482 1480 1479 1477 1477 1476 1476 1476 1477 1479 1482 1485 1488 1491 1494 1498 1503 1507 1511 1513 1515 1516 1518 1519 1520 1520 1520 1520 1518 1517 1514 1511 1508 1504 1500 1496 1491 1486 1480 1475 1470 1465
1472 1474 1473 1471 1468 1467 1467 1466 1466 1467 1468 1470 1473 1477 1481 1485 1489 1494 1498 1501 1504 1507 1510 1512 1513 1515 1516 1516 1517 1516 1516 1514 1512 1510 1507 1504 1501 1496 1492 1487 1481 1476 1470 1464
1464 1461 1461 1459 1457 1455 1455 1455 1456 1458 1459 1461 1465 1470 1475 1479 1483 1487 1491 1495 1499 1503 1505 1507 1509 1510 1511 1512 1513 1513 1512 1512 1510 1508 1506 1503 1500 1496 1492 1487 1482 1477 1472 1466
1450 1449 1449 1448 1445 1444 1443 1445 1446 1448 1449 1453 1458 1462 1466 1469 1473 1478 1483 1488 1493 1496 1498 1501 1504 1505 1507 1508 1509 1509 1509 1508 1507 1506 1504 1502 1499 1496 1492 1488 1484 1479 1473 1468
1437 1437 1436 1435 1433 1433 1432 1433 1435 1438 1441 1444 1448 1451 1456 1462 1467 1472 1477 1481 1484 1487 1492 1496 1498 1500 1502 1503 1504 1505 1505 1505 1504 1503 1502 1500 1498 1495 1492 1488 1484 1479 1474 1468
1425 1425 1424 1423 1422 1420 1420 1421 1425 1428 1430 1434 1438 1444 1448 1453 1459 1464 1468 1472 1475 1481 1487 1490 1492 1495 1497 1498 1499 1500 1501 1501 1501 1500 1500 1498 1496 1494 1491 1488 1484 1479 1474 1469
1414 1413 1412 1411 1409 1408 1408 1410 1413 1416 1419 1423 1427 1431 1438 1445 1451 1455 1460 1463 1469 1476 1480 1483 1486 1489 1491 1493 1495 1496 1497 1497 1497 1497 1497 1496 1494 1492 1490 1486 1483 1479 1474 1469
1400 1399 1398 1397 1396 1395 1396 1399 1402 1406 1409 1413 1418 1424 1431 1436 1442 1447 1451 1456 1462 1468 1472 1476 1479 1483 1486 1487 1489 1491 1492 1493 1493 1493 1493 1492 1491 1490 1488 1485 1481 1478 1473 1469
1388 1387 1385 1384 1382 1382 1385 1389 1392 1395 1399 1403 1407 1412 1418 1425 1431 1437 1442 1448 1455 1460 1465 1469 1473 1477 1479 1481 1483 1485 1487 1488 1488 1489 1489 1489 1488 1487 1485 1483 1480 1476 1472 1468
1377 1376 1375 1374 1373 1374 1376 1378 1382 1386 1390 1395 1400 1406 1412 1418 1424 1430 1436 1442 1447 1453 1457 1462 1467 1470 1473 1475 1477 1479 1481 1482 1483 1484 1485 1485 1485 1484 1482 1480 1477 1474 1470 1466
1367 1366 1365 1364 1364 1365 1368 1370 1374 1377 1382 1386 1392 1397 1404 1410 1416 1422 1428 1434 1440 1445 1449 1455 1460 1463 1466 1468 1471 1473 1475 1477 1478 1479 1480 1481 1481 1480 1479 1477 1474 1472 1468 1464
1359 1358 1357 1356 1357 1359 1360 1362 1364 1367 1371 1376 1381 1387 1394 1401 1408 1415 1421 1427 1432 1437 1441 1447 1451 1455 1458 1462 1465 1467 1469 1471 1472 1474 1475 1476 1476 1476 1475 1473 1471 1469 1465 1462
1352 1351 1350 1349 1349 1350 1351 1353 1356 1359 1362 1367 1371 1377 1384 1391 1398 1405 1412 1418 1423 1428 1433 1438 1443 1447 1451 1455 1458 1461 1463 1465 1467 1468 1470 1471 1471 1471 1471 1469 1468 1465 1462 1459